[[{"header":{"parameterUnit":"m.s-1","parameterCategory":2,"la1":30.2991,"la2":30.254,"lo1":-89.0895,"lo2":-89.0444,"dy":0.0017,"dx":0.0017,"nx":28,"ny":28,"refTime":"2025-01-02T09:00:00:Z","depth":"0","parameterNumber":2,"parameterNumberName":"U-component_of_CURRENTS"},"data":[0,0,0,0,0,0,0,0,0,0,0,0,0,0,0,0,0,0,0,0,0,0,0,0,0,0,0,0,0,0,0,0,0,0,0,0,0,0,0,0,0,0,0,0,0,0,0,0,0,0,0,0,0,0,0,0,0,0,0.2648,0.2647,0,0.2625,0.2625,0.2625,0.2615,0.2616,0.2616,0.2616,0.2589,0.2588,0.2587,0,0,0,0,0,0,0,0,0,0,0,0,0,0.2698,0.2697,0.2648,0.2647,0.2647,0.2625,0.2625,0.2625,0.2615,0.2616,0.2616,0.2616,0.2589,0.2588,0.2587,0,0,0,0,0,0,0,0,0,0,0,0,0,0.2675,0.2697,0.2648,0.2641,0.264,0.2626,0.2625,0.2625,0.2615,0.2616,0.2616,0.2616,0.2589,0.2588,0.2587,0.2575,0,0,0.2583,0.2582,0,0,0,0,0,0,0,0,0.2677,0.2673,0.2642,0.2641,0.264,0.2624,0.2633,0.2608,0.2615,0.2624,0.2616,0.2616,0.26,0.2598,0.2592,0.2573,0.2572,0.2583,0.2582,0.2581,0.2581,0,0,0,0,0,0,0,0.2678,0.2674,0.2638,0.2642,0.2641,0.2644,0.2641,0.2628,0.261,0.2623,0.2622,0.2622,0.26,0.2594,0.2592,0.2572,0.2583,0.2582,0.2581,0.258,0.2561,0.2561,0,0,0,0,0,0,0.2682,0.2676,0.2639,0.2637,0.266,0.2643,0.264,0.2628,0.2611,0.2608,0.2621,0.2621,0.2596,0.2593,0.2591,0.2597,0.2581,0.258,0.2579,0.2561,0.2561,0.2561,0,0,0,0,0,0,0.2682,0.2678,0.2639,0.2658,0.2653,0.2642,0.263,0.2628,0.2624,0.261,0.2607,0.262,0.2596,0.2592,0.2578,0.2595,0.258,0.2578,0.256,0.2561,0.2561,0.2596,0,0,0,0,0,0,0.2684,0.2678,0.2672,0.2657,0.2652,0.263,0.263,0.2627,0.2624,0.2623,0.2608,0.2605,0.2596,0.258,0.2577,0.2593,0.2577,0.256,0.2561,0.2561,0.2594,0.2597,0.26,0,0,0,0,0,0.2686,0.2668,0.2671,0.2667,0.2643,0.263,0.2627,0.2621,0.2624,0.2619,0.2609,0.2606,0.2582,0.2579,0.2575,0.2591,0.256,0.2561,0.2561,0.2593,0.2597,0.26,0,0,0,0,0,0,0.2676,0.2666,0.2668,0.2646,0.2642,0.2629,0.2624,0.2622,0.2611,0.2613,0.2601,0.2597,0.2596,0.2583,0.2581,0.2587,0.2574,0.2573,0.2599,0.2603,0.2605,0.2632,0.2576,0,0,0,0,0,0.2675,0.2666,0.2657,0.2642,0.2641,0.2636,0.2631,0.2628,0.2618,0.2613,0.2602,0.2595,0.2595,0.259,0.2582,0.2577,0.2591,0.2587,0.259,0.2593,0.2612,0.2651,0.266,0.2563,0.2563,0.2563,0,0,0.2668,0.2661,0.2655,0.2641,0.2639,0.2641,0.2633,0.2626,0.2633,0.2612,0.261,0.2601,0.2595,0.2595,0.2594,0.2587,0.2622,0.2593,0.2596,0.2614,0.2653,0.2663,0.2671,0.2564,0.2564,0.2564,0,0,0.2653,0.2644,0.2638,0.264,0.2639,0.264,0.2641,0.2631,0.2632,0.2623,0.2623,0.2626,0.2604,0.2617,0.2619,0.2631,0.2637,0.2624,0.2659,0.2697,0.2706,0.2714,0.2726,0.2735,0.2624,0.2625,0.2625,0,0.2645,0.2634,0.2633,0.2635,0.2639,0.2643,0.2644,0.2649,0.2636,0.2645,0.2625,0.2634,0.2622,0.2655,0.2659,0.2641,0.2654,0.2647,0.2703,0.2712,0.2719,0.273,0.274,0.2626,0.2626,0.2626,0.2626,0,0.2631,0.263,0.2626,0.2636,0.2642,0.2639,0.2654,0.2659,0.2659,0.2667,0.2686,0.2675,0.2687,0.2682,0.2672,0.2726,0.2712,0.2704,0.27,0.2732,0.274,0.2749,0.2629,0.2628,0.2628,0.2627,0,0,0.2586,0.2611,0.261,0.2619,0.2642,0.2639,0.2668,0.2687,0.2715,0.2709,0.2743,0.2746,0.2753,0.2757,0.2754,0.2784,0.2836,0.2769,0.277,0.279,0.2908,0.2825,0.2827,0.2841,0.2843,0.2845,0.2885,0,0.2572,0.2576,0.2598,0.2608,0.261,0.2641,0.267,0.2698,0.2721,0.2756,0.2775,0.28,0.2781,0.279,0.2822,0.284,0.2866,0.2825,0.2867,0.2868,0.2798,0.2837,0.269,0.2708,0.2894,0.2896,0.2897,0,0.2543,0.2553,0.2559,0.2596,0.2602,0.2617,0.2668,0.2696,0.2767,0.2791,0.2838,0.2855,0.2909,0.288,0.2945,0.292,0.2922,0.2928,0.2929,0.2853,0.2804,0.2708,0.2718,0.263,0.2911,0.291,0.2909,0,0.2492,0.2519,0.2522,0.2533,0.2581,0.2597,0.263,0.2701,0.2741,0.2825,0.2858,0.2927,0.2952,0.299,0.2999,0.298,0.3062,0.3033,0.296,0.2953,0.2837,0.2816,0.2776,0.3083,0.3082,0.3082,0.3082,0,0.2453,0.2452,0.2499,0.2497,0.2516,0.2567,0.2607,0.266,0.2753,0.2797,0.2873,0.2915,0.2982,0.3026,0.3035,0.3029,0.3091,0.2982,0.2968,0.2839,0.2819,0.2744,0.2726,0.3084,0.3084,0.3083,0.3083,0,0.2386,0.2416,0.242,0.2471,0.2487,0.25,0.2585,0.2622,0.2719,0.2782,0.281,0.2924,0.2971,0.3023,0.3081,0.3053,0.2967,0.3046,0.2877,0.2843,0.2661,0.265,0.2538,0.245,0.2967,0.2966,0.2964,0,0.2346,0.2343,0.2387,0.2393,0.2411,0.2448,0.2478,0.2589,0.2636,0.2766,0.2787,0.2874,0.2901,0.2973,0.2957,0.2963,0.2893,0.2823,0.2757,0.2643,0.2623,0.2537,0.2466,0.2612,0.2608,0.2604,0.2602,0,0.2276,0.2295,0.2305,0.2321,0.2342,0.2367,0.2419,0.2459,0.2574,0.2624,0.2696,0.2737,0.28,0.2749,0.2767,0.2753,0.2659,0.2749,0.2686,0.2392,0.2244,0.2154,0.2585,0.2571,0.2574,0.2577,0.2578,0.2579,0.2222,0.2213,0.2232,0.2236,0.2256,0.2262,0.2252,0.2314,0.2358,0.2399,0.2523,0.252,0.2544,0.2543,0.2531,0.2395,0.2425,0.2295,0.2307,0.2243,0.2103,0.2455,0.239,0.2392,0.2394,0.2395,0.2397,0,0.2141,0.214,0.2144,0.214,0.2117,0.2161,0.2186,0.2156,0.2138,0.221,0.2234,0.2208,0.2149,0.2173,0.2081,0.1976,0.1889,0.1913,0.1769,0.1734,0.2091,0.2018,0.1803,0.1803,0.1803,0.1803,0.1803,0.1803,0.21,0.2065,0.2062,0.1992,0.1986,0.1917,0.19,0.1873,0.1894,0.1849,0.1824,0.1859,0.1922,0.1857,0.1725,0.1674,0.1543,0.1445,0.1476,0.1741,0.1777,0.1812,0.1738,0.1468,0.1467,0.1002,0.0999,0.0996]},{"header":{"parameterUnit":"m.s-1","parameterCategory":2,"la1":30.2991,"la2":30.254,"lo1":-89.0895,"lo2":-89.0444,"dy":0.0017,"dx":0.0017,"nx":28,"ny":28,"refTime":"2025-01-02T09:00:00:Z","depth":"0","parameterNumber":3,"parameterNumberName":"V-component_of_CURRENTS"},"data":[0,0,0,0,0,0,0,0,0,0,0,0,0,0,0,0,0,0,0,0,0,0,0,0,0,0,0,0,0,0,0,0,0,0,0,0,0,0,0,0,0,0,0,0,0,0,0,0,0,0,0,0,0,0,0,0,0,0,-0.0048,-0.0048,0,-0.0108,-0.0109,-0.011,-0.0159,-0.0159,-0.016,-0.016,-0.0239,-0.0241,-0.0242,0,0,0,0,0,0,0,0,0,0,0,0,0,-0.0029,-0.0029,-0.0048,-0.0048,-0.0049,-0.0108,-0.0109,-0.011,-0.0159,-0.0159,-0.016,-0.016,-0.0238,-0.024,-0.0243,0,0,0,0,0,0,0,0,0,0,0,0,0,-0.006,-0.0029,-0.0048,-0.0078,-0.0082,-0.0108,-0.0109,-0.0111,-0.0159,-0.0159,-0.016,-0.016,-0.0237,-0.024,-0.0243,-0.0252,0,0,-0.0251,-0.0253,0,0,0,0,0,0,0,0,-0.0059,-0.0061,-0.0073,-0.0076,-0.008,-0.0124,-0.0132,-0.0158,-0.0159,-0.0132,-0.016,-0.016,-0.02,-0.0206,-0.022,-0.0256,-0.0259,-0.0252,-0.0253,-0.0254,-0.0255,0,0,0,0,0,0,0,-0.0056,-0.0059,-0.0075,-0.0074,-0.0078,-0.0108,-0.0112,-0.0137,-0.0166,-0.0135,-0.0138,-0.014,-0.0203,-0.0217,-0.0222,-0.026,-0.0251,-0.0254,-0.0256,-0.0257,-0.0284,-0.0283,0,0,0,0,0,0,-0.004,-0.0057,-0.0073,-0.0076,-0.0067,-0.0107,-0.0113,-0.0112,-0.0165,-0.0173,-0.014,-0.0142,-0.0212,-0.0219,-0.0225,-0.0223,-0.0254,-0.0257,-0.0259,-0.0285,-0.0284,-0.0283,0,0,0,0,0,0,-0.004,-0.0041,-0.007,-0.0066,-0.0072,-0.0106,-0.0106,-0.0113,-0.0124,-0.0168,-0.0177,-0.0143,-0.0213,-0.0221,-0.0236,-0.0227,-0.0258,-0.0261,-0.0286,-0.0284,-0.0283,-0.0229,0,0,0,0,0,0,-0.0039,-0.004,-0.0036,-0.0065,-0.0071,-0.0078,-0.0105,-0.0114,-0.0124,-0.0128,-0.0174,-0.0182,-0.0214,-0.0231,-0.0238,-0.0231,-0.0263,-0.0287,-0.0285,-0.0284,-0.0232,-0.0225,-0.022,0,0,0,0,0,-0.0038,-0.0029,-0.0036,-0.0038,-0.0063,-0.0077,-0.0083,-0.0111,-0.0124,-0.0124,-0.0151,-0.0181,-0.0225,-0.0233,-0.0241,-0.0235,-0.0288,-0.0286,-0.0284,-0.0234,-0.0227,-0.022,0,0,0,0,0,0,-0.0021,-0.0034,-0.0042,-0.0038,-0.0051,-0.0084,-0.0088,-0.0104,-0.0127,-0.0131,-0.0172,-0.0181,-0.0193,-0.0215,-0.0223,-0.0235,-0.026,-0.026,-0.0219,-0.0213,-0.0207,-0.0193,-0.0265,0,0,0,0,0,-0.0013,-0.001,-0.0027,-0.0024,-0.0027,-0.0055,-0.0065,-0.0081,-0.0104,-0.0115,-0.0143,-0.017,-0.0191,-0.0202,-0.0227,-0.0233,-0.0248,-0.0232,-0.0226,-0.0221,-0.0214,-0.0226,-0.022,-0.0276,-0.0276,-0.0276,0,0,-0.0007,-0.0012,-0.0012,-0.002,-0.0035,-0.0031,-0.0063,-0.0071,-0.007,-0.0119,-0.0126,-0.0154,-0.0188,-0.0197,-0.0204,-0.0215,-0.0212,-0.0219,-0.0214,-0.021,-0.0223,-0.0218,-0.0213,-0.0274,-0.0274,-0.0275,0,0,0.0011,0.0004,0.0015,0.001,-0.0002,-0.0015,-0.0011,-0.0036,-0.0049,-0.0057,-0.009,-0.0106,-0.014,-0.016,-0.0174,-0.0149,-0.0184,-0.0157,-0.0118,-0.0129,-0.0124,-0.0121,-0.0126,-0.0123,-0.0152,-0.0152,-0.0152,0,0.0022,0.0035,0.0015,0.0026,0.0028,-0.0,0.0015,-0.0002,-0.0027,-0.0028,-0.005,-0.0088,-0.0121,-0.0126,-0.012,-0.0137,-0.0147,-0.0143,-0.0121,-0.0118,-0.0116,-0.0122,-0.012,-0.0149,-0.0149,-0.015,-0.015,0,0.0049,0.006,0.0067,0.0076,0.0073,0.0081,0.0063,0.0057,0.0041,0.0029,0.0018,-0.0026,-0.0046,-0.0059,-0.0086,-0.0079,-0.0093,-0.0116,-0.0139,-0.0107,-0.0115,-0.0114,-0.0145,-0.0146,-0.0147,-0.0147,0,0,0.0083,0.0087,0.0093,0.0108,0.0102,0.0108,0.0109,0.0112,0.0129,0.0092,0.0108,0.0061,0.0039,0.0022,-0.0014,-0.0026,-0.002,-0.0058,-0.006,-0.0063,-0.0037,-0.0041,-0.0041,-0.0041,-0.004,-0.004,-0.0049,0,0.0117,0.0152,0.0142,0.0178,0.0197,0.0174,0.0183,0.0177,0.0172,0.018,0.0132,0.013,0.007,0.0064,0.0041,-0.0,-0.0015,-0.0015,-0.0068,-0.0069,-0.0078,-0.0039,-0.0008,-0.0013,-0.0048,-0.0047,-0.0047,0,0.0159,0.0178,0.0216,0.0239,0.0245,0.0257,0.0279,0.0287,0.0283,0.0277,0.026,0.0224,0.0197,0.0141,0.0082,0.0085,0.0029,-0.001,-0.0011,-0.0033,-0.0071,-0.0053,-0.001,-0.0084,-0.0046,-0.0046,-0.0046,0,0.0206,0.0237,0.0271,0.0279,0.0293,0.0302,0.0312,0.0318,0.0348,0.0345,0.0365,0.0316,0.0304,0.0226,0.0132,0.011,0.0072,0.0029,-0.0028,-0.0029,-0.0022,-0.0023,-0.0058,-0.0014,-0.0014,-0.0014,-0.0014,0,0.0257,0.0288,0.0296,0.0316,0.0365,0.0353,0.0411,0.0409,0.0437,0.049,0.0421,0.0452,0.0325,0.0279,0.0175,0.009,0.0102,-0.0008,-0.0027,-0.0001,-0.0,-0.0081,-0.0141,-0.0014,-0.0014,-0.0014,-0.0014,0,0.0306,0.031,0.0355,0.0376,0.0388,0.0424,0.0479,0.0526,0.0533,0.0599,0.0599,0.0569,0.0511,0.0381,0.0271,0.0164,0.0022,0.0028,0.007,0.0056,-0.0075,-0.0132,-0.0201,-0.0257,-0.003,-0.003,-0.0031,0,0.0333,0.036,0.0404,0.044,0.0452,0.0505,0.0548,0.0573,0.0635,0.068,0.0723,0.0682,0.0677,0.0515,0.0327,0.0156,0.0041,0.0053,0.0008,-0.0063,-0.0142,-0.0188,-0.0234,0.0041,0.0041,0.0042,0.0042,0,0.0389,0.04,0.0437,0.0508,0.0558,0.0625,0.069,0.0754,0.0793,0.0849,0.0919,0.0917,0.0766,0.0624,0.0376,0.0245,0.0001,0.0055,-0.0026,-0.009,-0.0134,-0.0201,0.0026,0.0046,0.0045,0.0045,0.0045,0.0045,0.0431,0.0466,0.0512,0.0582,0.0643,0.0727,0.0794,0.0878,0.0979,0.1058,0.1065,0.1079,0.0866,0.055,0.0372,0.0065,0.0025,-0.0039,-0.0102,-0.0141,-0.0197,0.0042,0.0041,0.004,0.004,0.004,0.0039,0,0.0479,0.0516,0.0584,0.0661,0.0734,0.0757,0.0875,0.0946,0.1068,0.1147,0.1203,0.1113,0.0867,0.0574,0.0176,-0.0041,-0.0146,-0.0173,-0.0229,-0.0271,-0.0052,-0.0051,-0.0061,-0.0061,-0.0061,-0.006,-0.006,-0.006,0.0505,0.0568,0.0597,0.0714,0.0775,0.0872,0.0939,0.1047,0.1128,0.1215,0.1227,0.1214,0.1004,0.0366,-0.0067,-0.0178,-0.0355,-0.039,-0.0499,-0.0339,-0.0332,-0.0324,-0.0335,-0.0405,-0.0405,-0.0677,-0.068,-0.0682]}],[{"header":{"parameterUnit":"m.s-1","parameterCategory":2,"la1":30.2991,"la2":30.254,"lo1":-89.0895,"lo2":-89.0444,"dy":0.0017,"dx":0.0017,"nx":28,"ny":28,"refTime":"2025-01-02T09:00:00:Z","depth":"2","parameterNumber":2,"parameterNumberName":"U-component_of_CURRENTS"},"data":[0,0,0,0,0,0,0,0,0,0,0,0,0,0,0,0,0,0,0,0,0,0,0,0,0,0,0,0,0,0,0,0,0,0,0,0,0,0,0,0,0,0,0,0,0,0,0,0,0,0,0,0,0,0,0,0,0,0,0.2335,0.2335,0,0.2321,0.2321,0.232,0.232,0.2321,0.2321,0.2322,0.234,0.234,0.234,0,0,0,0,0,0,0,0,0,0,0,0,0,0.234,0.234,0.2335,0.2335,0.2335,0.2321,0.2321,0.232,0.232,0.2321,0.2321,0.2322,0.234,0.234,0.234,0,0,0,0,0,0,0,0,0,0,0,0,0,0.2329,0.2339,0.2334,0.2336,0.2337,0.2321,0.2321,0.232,0.232,0.2321,0.2321,0.2322,0.234,0.234,0.234,0.2322,0,0,0.2339,0.2339,0,0,0,0,0,0,0,0,0.233,0.2328,0.2336,0.2336,0.2337,0.2327,0.2329,0.2324,0.232,0.2322,0.2322,0.2323,0.234,0.234,0.2329,0.2323,0.2324,0.2339,0.2339,0.2339,0.2339,0,0,0,0,0,0,0,0.233,0.2329,0.2325,0.2336,0.2337,0.2331,0.233,0.2328,0.2324,0.2322,0.2323,0.2328,0.234,0.2329,0.233,0.2324,0.2339,0.2339,0.2339,0.2339,0.2353,0.2353,0,0,0,0,0,0,0.2341,0.233,0.2325,0.2325,0.234,0.2331,0.233,0.2326,0.2323,0.2325,0.2327,0.2328,0.2329,0.233,0.2331,0.2364,0.2339,0.2339,0.2339,0.2352,0.2353,0.2353,0,0,0,0,0,0,0.2341,0.234,0.2326,0.2331,0.2329,0.2331,0.2326,0.2325,0.2328,0.2328,0.2329,0.2333,0.233,0.2331,0.2338,0.2363,0.2339,0.2339,0.2352,0.2352,0.2353,0.2396,0,0,0,0,0,0,0.2341,0.234,0.2341,0.2331,0.233,0.2324,0.2325,0.2324,0.2331,0.2332,0.2333,0.2334,0.2331,0.2338,0.2338,0.2362,0.2339,0.2351,0.2352,0.2353,0.2394,0.2398,0.2401,0,0,0,0,0,0.2341,0.2338,0.2341,0.2341,0.2331,0.2324,0.2322,0.2323,0.2331,0.2329,0.2333,0.2335,0.2344,0.2338,0.2338,0.2363,0.2351,0.2352,0.2353,0.2392,0.2397,0.2401,0,0,0,0,0,0,0.234,0.2338,0.2341,0.2338,0.2337,0.2326,0.2327,0.2329,0.2328,0.2335,0.2334,0.2336,0.2356,0.2346,0.2341,0.2368,0.235,0.2351,0.238,0.2384,0.2388,0.2405,0.2339,0,0,0,0,0,0.2341,0.2341,0.2338,0.2338,0.2337,0.2334,0.2334,0.2336,0.2335,0.2336,0.2341,0.2346,0.2355,0.236,0.2363,0.237,0.2378,0.2387,0.239,0.2393,0.2407,0.2439,0.2447,0.2356,0.2356,0.2356,0,0,0.2337,0.2343,0.2339,0.2339,0.2337,0.234,0.2335,0.2338,0.235,0.2338,0.2357,0.2361,0.236,0.2376,0.2384,0.2373,0.242,0.2395,0.2398,0.2409,0.2441,0.245,0.2458,0.2357,0.2357,0.2357,0,0,0.2336,0.2338,0.2337,0.2342,0.235,0.2349,0.2355,0.2353,0.2361,0.2371,0.2377,0.2396,0.2396,0.241,0.2414,0.2437,0.2441,0.2437,0.2468,0.2499,0.2507,0.2515,0.2527,0.2535,0.2436,0.2436,0.2436,0,0.2336,0.2335,0.2336,0.2345,0.2351,0.2358,0.2361,0.237,0.2376,0.239,0.2385,0.2415,0.2417,0.2451,0.246,0.245,0.2459,0.2453,0.2506,0.2513,0.252,0.2531,0.2539,0.2438,0.2438,0.2437,0.2437,0,0.2333,0.234,0.2342,0.2357,0.2363,0.2366,0.2383,0.2398,0.2411,0.2424,0.246,0.2464,0.2486,0.2489,0.2482,0.2534,0.2521,0.2511,0.2499,0.2532,0.2541,0.2549,0.2441,0.244,0.244,0.2439,0,0,0.2305,0.2332,0.2334,0.2343,0.2369,0.237,0.2403,0.2425,0.2458,0.2474,0.2512,0.2535,0.255,0.2557,0.2559,0.2583,0.2635,0.257,0.257,0.2589,0.2695,0.2616,0.2617,0.2636,0.2638,0.264,0.2678,0,0.23,0.2315,0.2334,0.235,0.2352,0.2382,0.2412,0.2445,0.2475,0.2518,0.2545,0.2582,0.2573,0.2591,0.2619,0.2636,0.266,0.2625,0.2653,0.2654,0.2587,0.2625,0.2398,0.2407,0.2686,0.2687,0.2688,0,0.2284,0.2299,0.231,0.2345,0.235,0.2372,0.2422,0.2454,0.2525,0.2556,0.2609,0.263,0.2685,0.2665,0.2725,0.2704,0.2708,0.2712,0.2714,0.2635,0.2591,0.2419,0.2411,0.2701,0.27,0.2699,0.2698,0,0.2247,0.2278,0.2286,0.2297,0.2343,0.2364,0.2397,0.2465,0.2506,0.2593,0.2628,0.2694,0.2729,0.2759,0.2772,0.2757,0.2824,0.2801,0.2733,0.2727,0.2535,0.2509,0.2844,0.2844,0.2843,0.2843,0.2843,0,0.2222,0.2228,0.2273,0.2276,0.2301,0.2347,0.2394,0.2447,0.2534,0.2576,0.2651,0.2688,0.2757,0.2793,0.2799,0.2793,0.2849,0.2752,0.2739,0.2541,0.2516,0.2772,0.2764,0.2845,0.2844,0.2844,0.2844,0,0.2173,0.2202,0.2214,0.2264,0.2282,0.2303,0.2386,0.2423,0.2517,0.2576,0.2605,0.2706,0.275,0.2796,0.2845,0.2816,0.2822,0.2802,0.2558,0.2516,0.2696,0.2689,0.2735,0.2732,0.2731,0.2729,0.2728,0,0.2146,0.2149,0.2195,0.2205,0.2227,0.2272,0.2302,0.2405,0.2445,0.2562,0.2576,0.2662,0.268,0.2737,0.2711,0.2711,0.2783,0.2496,0.2426,0.2706,0.269,0.2685,0.2681,0.2185,0.218,0.2175,0.2171,0,0.2097,0.2119,0.2132,0.2151,0.2177,0.2203,0.2254,0.2283,0.2386,0.243,0.248,0.2511,0.2564,0.246,0.2476,0.2446,0.248,0.24,0.2765,0.2249,0.2191,0.2174,0.2187,0.213,0.2134,0.2137,0.2139,0.2141,0.2063,0.2058,0.2077,0.2086,0.2111,0.211,0.21,0.2147,0.2178,0.2202,0.2303,0.2266,0.2291,0.2192,0.2121,0.2073,0.2252,0.2144,0.2157,0.2175,0.2106,0.2048,0.1945,0.1948,0.1951,0.1953,0.1955,0,0.2003,0.2003,0.2009,0.2003,0.1985,0.2031,0.2041,0.2001,0.1971,0.201,0.2021,0.1842,0.1763,0.1795,0.1648,0.1648,0.1624,0.1582,0.1524,0.1567,0.1605,0.1506,0.1187,0.1184,0.1182,0.118,0,0,0.1972,0.1942,0.1935,0.1872,0.1871,0.1806,0.1788,0.1739,0.173,0.1657,0.1608,0.1704,0.1748,0.1447,0.1405,0.1268,0.1411,0.1217,0.1836,0.1813,0.1847,0.1935,0.1831,0,0,0,0,0]},{"header":{"parameterUnit":"m.s-1","parameterCategory":2,"la1":30.2991,"la2":30.254,"lo1":-89.0895,"lo2":-89.0444,"dy":0.0017,"dx":0.0017,"nx":28,"ny":28,"refTime":"2025-01-02T09:00:00:Z","depth":"2","parameterNumber":3,"parameterNumberName":"V-component_of_CURRENTS"},"data":[0,0,0,0,0,0,0,0,0,0,0,0,0,0,0,0,0,0,0,0,0,0,0,0,0,0,0,0,0,0,0,0,0,0,0,0,0,0,0,0,0,0,0,0,0,0,0,0,0,0,0,0,0,0,0,0,0,0,0.0213,0.0212,0,0.018,0.018,0.018,0.0155,0.0154,0.0154,0.0153,0.0099,0.0098,0.0097,0,0,0,0,0,0,0,0,0,0,0,0,0,0.0228,0.0228,0.0213,0.0212,0.0212,0.018,0.018,0.0179,0.0155,0.0154,0.0154,0.0153,0.0099,0.0098,0.0097,0,0,0,0,0,0,0,0,0,0,0,0,0,0.0213,0.0229,0.0213,0.0195,0.0192,0.018,0.018,0.0179,0.0155,0.0154,0.0154,0.0153,0.01,0.0098,0.0097,0.0097,0,0,0.0092,0.0091,0,0,0,0,0,0,0,0,0.0214,0.0212,0.0198,0.0196,0.0193,0.017,0.0165,0.015,0.0155,0.017,0.0153,0.0153,0.012,0.0117,0.0114,0.0095,0.0092,0.0091,0.009,0.009,0.0089,0,0,0,0,0,0,0,0.0215,0.0213,0.0201,0.0197,0.0195,0.0179,0.0177,0.0162,0.0149,0.0169,0.0167,0.0161,0.0119,0.0116,0.0113,0.0091,0.0091,0.009,0.0089,0.0088,0.0061,0.0061,0,0,0,0,0,0,0.0218,0.0215,0.0202,0.02,0.0201,0.0179,0.0177,0.0179,0.015,0.0145,0.0162,0.016,0.0119,0.0115,0.0111,0.0105,0.009,0.0088,0.0087,0.0061,0.0061,0.0061,0,0,0,0,0,0,0.0219,0.0218,0.0204,0.0205,0.0202,0.018,0.0182,0.0179,0.0172,0.0144,0.0139,0.0159,0.0118,0.0113,0.0097,0.0103,0.0087,0.0086,0.006,0.0061,0.0061,0.0097,0,0,0,0,0,0,0.0219,0.0218,0.022,0.0206,0.0202,0.0197,0.0183,0.0178,0.0169,0.0166,0.014,0.0134,0.0118,0.01,0.0095,0.01,0.0085,0.006,0.0061,0.0061,0.0096,0.0099,0.0101,0,0,0,0,0,0.022,0.0224,0.0221,0.0219,0.0206,0.0197,0.0194,0.0177,0.0169,0.0169,0.015,0.0135,0.01,0.0098,0.0093,0.0098,0.006,0.006,0.0061,0.0094,0.0098,0.0101,0,0,0,0,0,0,0.0229,0.0222,0.0218,0.0219,0.0209,0.0192,0.0189,0.0179,0.0165,0.0162,0.0137,0.0131,0.0119,0.0104,0.0103,0.0092,0.0078,0.0078,0.0105,0.0108,0.0111,0.0126,0.0083,0,0,0,0,0,0.0234,0.0237,0.0225,0.0225,0.0224,0.0208,0.0202,0.0191,0.0177,0.017,0.0149,0.0131,0.0119,0.011,0.0094,0.0088,0.0074,0.0088,0.0091,0.0094,0.0103,0.0088,0.0091,0.0063,0.0063,0.0063,0,0,0.0237,0.0232,0.0234,0.0228,0.0221,0.0226,0.0204,0.0197,0.0199,0.0166,0.016,0.0138,0.0119,0.0111,0.0105,0.0099,0.0093,0.0095,0.0097,0.0105,0.0089,0.0092,0.0094,0.0064,0.0064,0.0064,0,0,0.0248,0.0244,0.0253,0.0249,0.024,0.0234,0.0234,0.0218,0.0209,0.0199,0.0178,0.0163,0.0139,0.0129,0.0122,0.0132,0.0107,0.0124,0.0152,0.0138,0.014,0.0142,0.0121,0.0121,0.0127,0.0127,0.0127,0,0.0252,0.0266,0.0253,0.026,0.0263,0.0242,0.0256,0.0246,0.0223,0.0223,0.02,0.0175,0.0151,0.0154,0.0154,0.014,0.0124,0.0141,0.0142,0.0144,0.0145,0.0124,0.0123,0.0129,0.0129,0.0129,0.0129,0,0.0273,0.0283,0.0288,0.0298,0.0298,0.0304,0.0293,0.0286,0.0271,0.0263,0.0252,0.0217,0.0205,0.0192,0.0174,0.0176,0.0158,0.0146,0.0135,0.015,0.0126,0.0125,0.0132,0.0131,0.0131,0.013,0,0,0.0291,0.0303,0.0306,0.0322,0.0321,0.0326,0.0329,0.0335,0.0351,0.0313,0.0325,0.029,0.027,0.026,0.0231,0.0215,0.0201,0.0186,0.0184,0.0169,0.0163,0.0151,0.0148,0.0187,0.0187,0.0187,0.0141,0,0.0316,0.0345,0.0342,0.0375,0.0394,0.038,0.0391,0.039,0.0384,0.0387,0.0348,0.0346,0.0297,0.029,0.0265,0.0224,0.02,0.0214,0.0149,0.0147,0.0137,0.0148,0.0168,0.0129,0.0139,0.0139,0.0139,0,0.0345,0.0363,0.0399,0.0427,0.0435,0.0446,0.0472,0.0481,0.0479,0.0473,0.0457,0.0425,0.0395,0.0348,0.0279,0.0289,0.0229,0.0188,0.0185,0.0164,0.0133,0.0116,0.0125,0.0136,0.0136,0.0137,0.0137,0,0.0376,0.0406,0.0439,0.0447,0.047,0.0481,0.0495,0.0507,0.0535,0.0531,0.0544,0.0498,0.048,0.0401,0.0303,0.0291,0.0224,0.0198,0.0129,0.0127,0.0127,0.0125,0.0146,0.0146,0.0146,0.0146,0.0147,0,0.0411,0.0438,0.0455,0.0473,0.052,0.052,0.0575,0.0578,0.0605,0.0651,0.0592,0.0608,0.0493,0.0434,0.0332,0.0231,0.0243,0.0139,0.0119,0.0139,0.0139,0.0133,0.0132,0.0145,0.0145,0.0145,0.0146,0,0.0441,0.045,0.0492,0.0522,0.0535,0.057,0.063,0.0674,0.0684,0.0738,0.0736,0.0699,0.0625,0.05,0.0381,0.0282,0.0178,0.0134,0.0162,0.0146,0.0079,0.0081,0.0056,0.0055,0.0055,0.0054,0.0054,0,0.0458,0.0482,0.053,0.0564,0.0578,0.0633,0.0677,0.071,0.0766,0.0797,0.0828,0.0771,0.0745,0.0564,0.0389,0.0214,0.0181,0.0107,0.0087,0.009,0.0072,0.0074,0.0077,0.0095,0.0095,0.0095,0.0095,0,0.0496,0.0509,0.0545,0.0614,0.0662,0.073,0.0794,0.0849,0.0893,0.0931,0.0969,0.0948,0.0783,0.0623,0.0384,0.0263,0.0136,0.01,0.0104,0.0118,0.0124,0.0107,0.0109,0.0095,0.0095,0.0095,0.0095,0.0095,0.0525,0.0556,0.0602,0.0668,0.0728,0.0808,0.0871,0.0944,0.1027,0.1076,0.1066,0.1027,0.0854,0.0551,0.0356,0.0139,0.0147,0.0058,0.006,0.0061,0.0076,0.0081,0.0047,0.0046,0.0046,0.0046,0.0046,0,0.0559,0.0594,0.0656,0.073,0.0798,0.0827,0.0935,0.0994,0.1086,0.1121,0.1143,0.0963,0.0794,0.0578,0.0268,0.0089,0.0075,0.0021,0.0045,0.0048,0.0049,0.0064,0.0031,0.003,0.003,0.0029,0,0,0.0578,0.0633,0.0661,0.0767,0.0825,0.0915,0.0976,0.1057,0.1103,0.1131,0.1104,0.1079,0.0838,0.0609,0.0378,0.0199,0.0157,0.0159,0.0192,0.0251,0.0254,0.0093,0.0122,0,0,0,0,0]}],[{"header":{"parameterUnit":"m.s-1","parameterCategory":2,"la1":30.2991,"la2":30.254,"lo1":-89.0895,"lo2":-89.0444,"dy":0.0017,"dx":0.0017,"nx":28,"ny":28,"refTime":"2025-01-02T09:00:00:Z","depth":"4","parameterNumber":2,"parameterNumberName":"U-component_of_CURRENTS"},"data":[0,0,0,0,0,0,0,0,0,0,0,0,0,0,0,0,0,0,0,0,0,0,0,0,0,0,0,0,0,0,0,0,0,0,0,0,0,0,0,0,0,0,0,0,0,0,0,0,0,0,0,0,0,0,0,0,0,0,0.1368,0.1369,0,0.1404,0.1404,0.1404,0.1451,0.1452,0.1453,0.1454,0.15,0.15,0.1501,0,0,0,0,0,0,0,0,0,0,0,0,0,0.1337,0.1338,0.1368,0.1369,0.137,0.1403,0.1404,0.1404,0.1451,0.1452,0.1453,0.1454,0.15,0.15,0.1501,0,0,0,0,0,0,0,0,0,0,0,0,0,0.1358,0.1338,0.1368,0.1398,0.1401,0.1403,0.1404,0.1404,0.1451,0.1452,0.1454,0.1455,0.15,0.15,0.1501,0.1477,0,0,0.1503,0.1503,0,0,0,0,0,0,0,0,0.1357,0.1359,0.1393,0.1396,0.14,0.1426,0.141,0.143,0.1451,0.1431,0.1454,0.1456,0.1476,0.1479,0.148,0.1479,0.1481,0.1503,0.1503,0.1503,0.1503,0,0,0,0,0,0,0,0.1355,0.1358,0.1381,0.1394,0.1398,0.1408,0.1412,0.1414,0.1444,0.1432,0.1436,0.1442,0.1478,0.1479,0.1482,0.1482,0.1503,0.1503,0.1504,0.1504,0.1566,0.1567,0,0,0,0,0,0,0.1352,0.1356,0.138,0.1382,0.1383,0.1408,0.1413,0.1415,0.1444,0.145,0.1441,0.1444,0.1478,0.1481,0.1483,0.154,0.1503,0.1504,0.1504,0.1564,0.1566,0.1567,0,0,0,0,0,0,0.1352,0.1354,0.1378,0.1371,0.1376,0.1407,0.1409,0.1415,0.1448,0.1451,0.1457,0.1472,0.1479,0.1483,0.1513,0.1539,0.1504,0.1505,0.1563,0.1565,0.1567,0.16,0,0,0,0,0,0,0.135,0.1353,0.137,0.1371,0.1376,0.1397,0.1408,0.1414,0.1448,0.1453,0.1478,0.1482,0.148,0.1512,0.1514,0.1539,0.1505,0.1561,0.1564,0.1566,0.1597,0.1602,0.1607,0,0,0,0,0,0.1349,0.1357,0.137,0.1374,0.1392,0.1398,0.1401,0.1427,0.1448,0.1462,0.1486,0.1483,0.1529,0.1514,0.1515,0.1541,0.156,0.1563,0.1566,0.1595,0.1601,0.1607,0,0,0,0,0,0,0.1351,0.1362,0.1377,0.1389,0.1403,0.1407,0.1427,0.1442,0.147,0.1488,0.1492,0.1497,0.1537,0.1534,0.1516,0.1568,0.1547,0.155,0.1569,0.1575,0.158,0.1591,0.1506,0,0,0,0,0,0.1359,0.1372,0.138,0.1395,0.1405,0.1422,0.1435,0.1452,0.1469,0.1485,0.1503,0.1525,0.1543,0.1556,0.157,0.159,0.1597,0.1611,0.1617,0.1621,0.1633,0.1664,0.1673,0.1577,0.1577,0.1577,0,0,0.1363,0.1373,0.1382,0.1398,0.1414,0.1429,0.1434,0.146,0.1483,0.1483,0.153,0.1545,0.1554,0.1583,0.1601,0.1588,0.1652,0.1625,0.1628,0.1638,0.1668,0.1677,0.1685,0.1579,0.1579,0.1578,0,0,0.1369,0.139,0.1403,0.1418,0.1446,0.1454,0.1468,0.1489,0.1513,0.1547,0.156,0.1593,0.1617,0.163,0.1638,0.1679,0.1679,0.1688,0.1721,0.1751,0.1759,0.1766,0.1783,0.1791,0.1689,0.1689,0.1689,0,0.1383,0.1394,0.1408,0.1427,0.1442,0.1468,0.1485,0.1508,0.1541,0.1562,0.1573,0.1631,0.164,0.1675,0.1695,0.1691,0.1706,0.1693,0.1757,0.1765,0.1771,0.1787,0.1795,0.1691,0.1691,0.169,0.169,0,0.1389,0.1413,0.1423,0.1455,0.1473,0.1492,0.1519,0.1553,0.1587,0.161,0.1666,0.1682,0.1719,0.1727,0.1725,0.1778,0.1772,0.176,0.1739,0.1783,0.1796,0.1805,0.1694,0.1693,0.1692,0.1692,0,0,0.1379,0.1421,0.1429,0.1448,0.149,0.15,0.1546,0.1583,0.1623,0.1667,0.1715,0.1754,0.1778,0.179,0.1796,0.1823,0.188,0.1819,0.182,0.1831,0.1946,0.1806,0.1802,0.1882,0.1884,0.1886,0.1934,0,0.1385,0.1416,0.1437,0.1473,0.1488,0.1528,0.1565,0.1609,0.1654,0.1709,0.1747,0.1798,0.1797,0.1826,0.1855,0.1879,0.1905,0.1867,0.1906,0.1907,0.1774,0.1808,0.1891,0.194,0.1942,0.1944,0.1945,0,0.138,0.1402,0.1435,0.1479,0.1492,0.1525,0.1589,0.1628,0.1707,0.1748,0.181,0.1843,0.1904,0.1893,0.1961,0.1941,0.1954,0.1964,0.1965,0.183,0.1783,0.1889,0.196,0.1959,0.1958,0.1957,0.1956,0,0.1348,0.1397,0.1423,0.144,0.1498,0.1532,0.1573,0.1648,0.1689,0.1786,0.1831,0.1901,0.195,0.1985,0.2013,0.2001,0.2075,0.2052,0.1937,0.1927,0.2024,0.2016,0.21,0.21,0.21,0.2099,0.2099,0,0.1325,0.1351,0.1418,0.1433,0.1477,0.1525,0.1587,0.1643,0.1727,0.1775,0.1857,0.1897,0.198,0.2025,0.2038,0.201,0.2098,0.1949,0.1932,0.2036,0.2029,0.2029,0.2021,0.2101,0.2101,0.21,0.21,0,0.1282,0.1327,0.1364,0.1436,0.1464,0.1501,0.1592,0.1628,0.1723,0.179,0.1826,0.1923,0.1974,0.2027,0.2085,0.2026,0.2022,0.1991,0.2104,0.2091,0.1848,0.1841,0.1861,0.1856,0.1852,0.1849,0.1846,0,0.1258,0.1275,0.1362,0.1389,0.1429,0.1492,0.153,0.1623,0.1658,0.1781,0.1796,0.1888,0.1936,0.1904,0.1973,0.1979,0.1955,0.1937,0.1885,0.1844,0.1826,0.1824,0.1822,0.184,0.1839,0.1838,0.1837,0,0.1213,0.1263,0.1295,0.1349,0.1396,0.1432,0.1493,0.1506,0.1604,0.1707,0.172,0.1739,0.1787,0.1816,0.1835,0.1837,0.1938,0.1897,0.1904,0.1855,0.182,0.1805,0.1807,0.1824,0.1826,0.1827,0.1828,0,0.1191,0.1203,0.1255,0.129,0.1346,0.1346,0.1387,0.141,0.1452,0.1577,0.1579,0.1671,0.1767,0.1743,0.1762,0.175,0.1718,0.1653,0.1672,0.1688,0.1607,0.1535,0.1441,0,0,0,0,0,0.1157,0.1155,0.1185,0.1207,0.1256,0.1283,0.1346,0.1384,0.1478,0.1445,0.1503,0.1536,0.155,0.1601,0.1554,0.1689,0.1732,0.1626,0.1668,0.1751,0.1766,0.1685,0,0,0,0,0,0,0.113,0.1159,0.1155,0.1129,0.113,0.1159,0.1195,0.1255,0.1237,0.1344,0.1362,0.1443,0.1487,0.1567,0.1528,0.1542,0.1534,0.1688,0.1683,0.1742,0.1756,0.1768,0.1691,0,0,0,0,0]},{"header":{"parameterUnit":"m.s-1","parameterCategory":2,"la1":30.2991,"la2":30.254,"lo1":-89.0895,"lo2":-89.0444,"dy":0.0017,"dx":0.0017,"nx":28,"ny":28,"refTime":"2025-01-02T09:00:00:Z","depth":"4","parameterNumber":3,"parameterNumberName":"V-component_of_CURRENTS"},"data":[0,0,0,0,0,0,0,0,0,0,0,0,0,0,0,0,0,0,0,0,0,0,0,0,0,0,0,0,0,0,0,0,0,0,0,0,0,0,0,0,0,0,0,0,0,0,0,0,0,0,0,0,0,0,0,0,0,0,0.0275,0.0275,0,0.0264,0.0263,0.0263,0.0266,0.0266,0.0266,0.0266,0.027,0.027,0.027,0,0,0,0,0,0,0,0,0,0,0,0,0,0.0268,0.0268,0.0275,0.0275,0.0275,0.0264,0.0263,0.0263,0.0265,0.0266,0.0266,0.0266,0.027,0.027,0.027,0,0,0,0,0,0,0,0,0,0,0,0,0,0.0265,0.0268,0.0275,0.0275,0.0275,0.0264,0.0263,0.0263,0.0265,0.0266,0.0266,0.0266,0.027,0.027,0.027,0.0263,0,0,0.0269,0.0269,0,0,0,0,0,0,0,0,0.0265,0.0266,0.0275,0.0275,0.0275,0.0266,0.0262,0.0264,0.0265,0.0269,0.0266,0.0266,0.027,0.027,0.0267,0.0263,0.0263,0.0269,0.0269,0.0269,0.0269,0,0,0,0,0,0,0,0.0266,0.0266,0.0271,0.0275,0.0274,0.0264,0.0264,0.0262,0.0268,0.0269,0.0269,0.0267,0.027,0.0267,0.0267,0.0263,0.0269,0.0269,0.0269,0.0269,0.0262,0.0262,0,0,0,0,0,0,0.0268,0.0266,0.0271,0.027,0.0271,0.0264,0.0264,0.0269,0.0268,0.0268,0.0267,0.0267,0.0267,0.0267,0.0267,0.0277,0.0269,0.0269,0.0269,0.0263,0.0262,0.0262,0,0,0,0,0,0,0.0268,0.0269,0.0272,0.0268,0.0267,0.0264,0.0269,0.0268,0.027,0.0266,0.0267,0.027,0.0267,0.0267,0.027,0.0277,0.0269,0.0269,0.0263,0.0262,0.0262,0.0286,0,0,0,0,0,0,0.0268,0.0269,0.0275,0.0268,0.0268,0.0269,0.0268,0.0268,0.0268,0.0269,0.0269,0.0269,0.0267,0.027,0.027,0.0276,0.0269,0.0263,0.0263,0.0262,0.0285,0.0287,0.0288,0,0,0,0,0,0.0268,0.0274,0.0275,0.0276,0.0275,0.027,0.0268,0.0267,0.0268,0.0269,0.027,0.0269,0.0269,0.027,0.027,0.0276,0.0263,0.0263,0.0262,0.0285,0.0286,0.0288,0,0,0,0,0,0,0.0272,0.0274,0.0276,0.0281,0.0278,0.027,0.0272,0.0269,0.027,0.0273,0.027,0.027,0.0275,0.0269,0.0271,0.0272,0.0265,0.0265,0.0282,0.0283,0.0285,0.0295,0.0269,0,0,0,0,0,0.0275,0.0282,0.0279,0.0284,0.0283,0.0278,0.0276,0.0275,0.0273,0.0274,0.0273,0.0271,0.0272,0.0273,0.0271,0.0273,0.0257,0.0275,0.0276,0.0278,0.0284,0.0264,0.0264,0.0262,0.0262,0.0262,0,0,0.0278,0.028,0.0284,0.0285,0.0283,0.0288,0.0278,0.0278,0.0284,0.0274,0.0282,0.0276,0.0272,0.0276,0.0277,0.0274,0.0268,0.0277,0.0279,0.0285,0.0264,0.0264,0.0264,0.0262,0.0262,0.0262,0,0,0.0286,0.029,0.0298,0.0297,0.0297,0.0296,0.0297,0.0292,0.0292,0.0295,0.029,0.0289,0.0287,0.0286,0.0286,0.0291,0.0274,0.0288,0.0306,0.0286,0.0286,0.0286,0.0257,0.0255,0.029,0.029,0.029,0,0.0289,0.0302,0.0298,0.0305,0.031,0.0302,0.0313,0.0309,0.0305,0.031,0.0302,0.0299,0.0294,0.0302,0.0303,0.0296,0.0277,0.0303,0.0288,0.0288,0.0288,0.0258,0.0255,0.0291,0.0291,0.0291,0.0291,0,0.0302,0.0314,0.0318,0.033,0.0333,0.034,0.0338,0.0339,0.0338,0.0338,0.034,0.0326,0.0327,0.032,0.0316,0.0313,0.0298,0.0292,0.0287,0.029,0.0258,0.0254,0.0293,0.0292,0.0292,0.0292,0,0,0.0308,0.0325,0.0329,0.0343,0.035,0.0355,0.0364,0.0374,0.0389,0.0373,0.0384,0.0375,0.0366,0.0364,0.0351,0.0333,0.0309,0.0314,0.0312,0.0289,0.0256,0.0239,0.0233,0.03,0.0299,0.0299,0.0232,0,0.0323,0.0346,0.0351,0.0379,0.0393,0.0392,0.0406,0.0413,0.0415,0.0421,0.04,0.0407,0.0383,0.0385,0.0362,0.0328,0.0302,0.0327,0.0254,0.0252,0.024,0.023,0.0298,0.0229,0.0228,0.0227,0.0227,0,0.0337,0.0354,0.0383,0.0414,0.0421,0.0436,0.0463,0.0475,0.048,0.0481,0.0474,0.0457,0.0436,0.0409,0.0346,0.0363,0.0313,0.0276,0.0273,0.0249,0.0228,0.0227,0.022,0.022,0.0221,0.0221,0.0222,0,0.0349,0.0379,0.0407,0.0415,0.0444,0.046,0.048,0.0497,0.0519,0.0521,0.053,0.0498,0.0484,0.042,0.0344,0.0345,0.0263,0.0253,0.0186,0.0183,0.0209,0.021,0.0199,0.02,0.02,0.02,0.02,0,0.0363,0.0387,0.0417,0.0432,0.0475,0.0486,0.0534,0.0544,0.0567,0.0598,0.0566,0.0567,0.0486,0.0429,0.0352,0.0258,0.0266,0.0187,0.0167,0.0219,0.0221,0.0206,0.0207,0.0197,0.0198,0.0198,0.0199,0,0.0371,0.0389,0.0426,0.0465,0.0482,0.0515,0.0574,0.0606,0.0622,0.0654,0.0655,0.062,0.0547,0.0453,0.0346,0.0274,0.0182,0.0143,0.02,0.0185,0.0111,0.0115,0.0062,0.0061,0.006,0.006,0.0059,0,0.0377,0.0396,0.0452,0.0482,0.0503,0.0556,0.0595,0.0631,0.0666,0.0685,0.0696,0.064,0.0599,0.0435,0.0335,0.018,0.0156,0.0099,0.0108,0.0112,0.0098,0.0103,0.0108,0.0057,0.0057,0.0057,0.0057,0,0.0389,0.0411,0.0442,0.0505,0.0552,0.0608,0.0663,0.0691,0.0729,0.0741,0.0724,0.0642,0.0557,0.0433,0.0311,0.0201,0.0133,0.0088,0.009,0.0098,0.0106,0.0093,0.0099,0.0053,0.0054,0.0054,0.0054,0,0.0401,0.0425,0.047,0.0524,0.0583,0.0637,0.0671,0.0706,0.0738,0.0752,0.0743,0.0654,0.0607,0.0444,0.0334,0.0222,0.0192,0.0147,0.0145,0.0147,0.0192,0.0215,0.0178,0,0,0,0,0,0.041,0.0436,0.0486,0.0544,0.0603,0.064,0.0704,0.0734,0.0765,0.0754,0.0751,0.067,0.0511,0.045,0.0334,0.031,0.0169,0.0169,0.0115,0.0035,0.0039,0.0076,0,0,0,0,0,0,0.0415,0.046,0.0481,0.0547,0.059,0.0657,0.0699,0.0725,0.0724,0.0736,0.0659,0.0626,0.0478,0.0574,0.0327,0.0295,0.024,0.0102,0.0099,0.0033,0.0036,0.0039,0.0079,0,0,0,0,0]}]]